Wooster, OH

3:04 AM EDT on April 28, 2017 (GMT -0400)
Wayne County

Weather History for KBJJ - December, 2013

Change the Weather History Date:

Saturday, December 7, 2013

  Actual Average Record
Temperature  
Mean Temperature 18 °F -  
Max Temperature 25 °F 39 °F 64 °F (1998)
Min Temperature 12 °F 26 °F 1 °F (2005)
Degree Days  
Heating Degree Days 46    
Moisture  
Dew Point 13 °F    
Average Humidity 76    
Maximum Humidity 92    
Minimum Humidity 63    
Precipitation  
Precipitation 0.00 in - - ()
Sea Level Pressure  
Sea Level Pressure 30.54 in    
Wind  
Wind Speed 8 mph (NW)    
Max Wind Speed 13 mph    
Max Gust Speed -    
Visibility 9 miles    
Events Snow    
Averages and records for this station are not official NWS values.
T = Trace of Precipitation, MM = Missing Value Source: NWS Daily Summary

Daily Weather History Graph

Daily Weather History Graph

Search for Another Location

Airport or City:

Trip Planner

Search our weather history database for the weather conditions in past years. The results will help you decide how hot, cold, wet, or windy it might be!

Date:

Astronomy

Dec. 07, 2013 Rise Set
Actual Time 7:38 AM EST 4:59 PM EST
Civil Twilight 7:07 AM EST 5:30 PM EST
Nautical Twilight 6:33 AM EST 6:04 PM EST
Astronomical Twilight 6:00 AM EST 6:37 PM EST
Moon 11:21 AM EST (12/7) 10:41 PM EST (12/7)
Length of Visible Light 10h 22m
Length of Day
9h 20m
Waxing Crescent, 29% of the Moon is Illuminated
Dec 7
Waxing Crescent
Dec 9
First Quarter
Dec 17
Full
Dec 25
Last Quarter
Jan 1
New

Hourly Weather History & Observations

Time (EST) Temp. Windchill Dew Point Humidity Pressure Visibility Wind Dir Wind Speed Gust Speed Precip Events Conditions
12:56 AM 25.0 °F 18.1 °F 21.0 °F 85% 30.37 in 9.0 mi NW 5.8 mph - 0.00 in   Overcast
1:56 AM 24.1 °F 14.4 °F 21.0 °F 88% 30.37 in 7.0 mi NW 9.2 mph - 0.00 in Snow Light Snow
2:56 AM 24.1 °F 12.5 °F 19.0 °F 81% 30.40 in 10.0 mi NW 12.7 mph - 0.00 in   Overcast
3:56 AM 23.0 °F 11.1 °F 16.0 °F 74% 30.42 in 10.0 mi NW 12.7 mph - N/A   Overcast
4:56 AM 19.9 °F 8.6 °F 14.0 °F 78% 30.45 in 10.0 mi NW 10.4 mph - N/A   Partly Cloudy
5:56 AM 19.0 °F 8.2 °F 12.9 °F 77% 30.48 in 10.0 mi NW 9.2 mph - N/A   Clear
6:56 AM 19.0 °F 8.2 °F 12.9 °F 77% 30.51 in 10.0 mi NW 9.2 mph - N/A   Mostly Cloudy
7:56 AM 19.9 °F 8.6 °F 12.9 °F 74% 30.53 in 10.0 mi NW 10.4 mph - N/A   Overcast
8:56 AM 19.0 °F 11.1 °F 10.9 °F 71% 30.56 in 10.0 mi West 5.8 mph - N/A   Overcast
9:40 AM 19.4 °F 8.6 °F 12.2 °F 74% 30.51 in 10.0 mi NW 9.2 mph - N/A   Scattered Clouds
9:56 AM 19.9 °F 10.1 °F 12.0 °F 71% 30.58 in 10.0 mi WNW 8.1 mph - N/A   Clear
10:56 AM 21.9 °F 11.7 °F 12.9 °F 68% 30.58 in 10.0 mi NW 9.2 mph - N/A   Partly Cloudy
11:13 AM 21.2 °F 10.9 °F 12.2 °F 68% 30.53 in 10.0 mi WNW 9.2 mph - N/A   Mostly Cloudy
11:56 AM 21.9 °F 12.5 °F 12.0 °F 66% 30.58 in 10.0 mi NW 8.1 mph - N/A   Mostly Cloudy
12:56 PM 23.0 °F 12.4 °F 12.9 °F 65% 30.58 in 10.0 mi NNW 10.4 mph - N/A   Overcast
1:56 PM 23.0 °F 11.7 °F 12.0 °F 63% 30.57 in 10.0 mi North 11.5 mph - N/A   Overcast
2:56 PM 21.9 °F 13.4 °F 10.9 °F 63% 30.56 in 10.0 mi NW 6.9 mph - N/A   Scattered Clouds
3:09 PM 23.0 °F 13.1 °F 12.2 °F 63% 30.51 in 10.0 mi North 9.2 mph - N/A   Mostly Cloudy
3:24 PM 21.2 °F 11.7 °F 12.2 °F 68% 30.51 in 10.0 mi North 8.1 mph - N/A   Scattered Clouds
3:56 PM 21.9 °F 12.5 °F 10.9 °F 63% 30.57 in 10.0 mi NNW 8.1 mph - N/A   Clear
4:56 PM 19.0 °F 13.9 °F 12.0 °F 74% 30.59 in 10.0 mi NW 3.5 mph - N/A   Clear
5:56 PM 16.0 °F - 10.9 °F 81% 30.61 in 10.0 mi Calm Calm - N/A   Clear
6:56 PM 17.1 °F - 12.0 °F 81% 30.61 in 10.0 mi Calm Calm - N/A   Clear
7:56 PM 14.0 °F - 10.9 °F 88% 30.63 in 8.0 mi Calm Calm - 0.00 in   Clear
8:56 PM 14.0 °F - 12.0 °F 92% 30.63 in 6.0 mi Calm Calm - N/A   Clear
9:56 PM 12.0 °F - 10.0 °F 92% 30.63 in 6.0 mi Calm Calm - N/A   Clear
10:56 PM 12.9 °F - 10.0 °F 88% 30.63 in 5.0 mi Calm Calm - N/A   Clear
11:56 PM 12.9 °F - 8.1 °F 81% 30.62 in 5.0 mi Calm Calm - N/A   Haze